OBJECT T, 62626

Orbit data source: Space-Track

You're viewing an Uncataloged Satellite

Recently launched and/or uncataloged satellites may have evolving metadata. Metadata may include but not limited to: Owner, Maufacturer, Bus, Motor, and Mission.

OBJECT T, 62626 is a satellite in SSO that was launched on Tue, 14 Jan 2025 UTC via an FALCON 9 launch vehicle from the Air Force Western Test Range (AFWTR). Unknown objects in Earth's orbit typically refer to objects detected orbiting the Earth but have not yet been identified or cataloged. These objects could be anything from previously untracked satellites, spent rocket stages, debris from satellite collisions, or even natural meteoroids temporarily captured by Earth's gravity.

Loading next visibility...
Identifier
62626, 2025-009T
Orbit
SSO
Last TLE update
2 days ago
Origin
Flag of TBDMBRSC (TBD)
Manufacturer
Rashid Space Ctr
Mission
Operational Civil Imaging
Bus & Motor
MBZSAT, Unknown motor
Mass
750 kg wet, ~700 kg dry
Launch date (UTC)
2025-01-14 (3 months ago)
Launch vehicle
FALCON 9
Launch site
Air Force Western Test Range (AFWTR)
Object type
Unknown
Shape & HBR
Hex Cyl + 4 Pan, 5 m
Radar Cross Section
14.173 m², Large (>1 m²)

Expand to show TLE details & history

TLE from 2 days ago
0 OBJECT T
1 62626U 25009T   25118.75985231  .00008848  00000-0  41703-3 0  9991
2 62626  97.4295 199.7299 0002343 351.1083   9.0110 15.19728022 15777
Epoch: 2025-04-28T18:14Z
Definitive object data (Epoch: 2025-04-28T18:14:11.239Z)
Latitude
-0.00003°
Longitude
69.21382°
Altitude
508.158 km
Speed
7.611 km/s
True Right ascension
13h 18m 55s
True Declination
0° 00' 00"
Sunlit
Object was in full shadow at TLE epoch
Visualization TLE readout
Latitude
-57.02564°
Longitude
82.4192°
Altitude
527.512 km
Speed
7.599 km/s
Apparent Right ascension
09h 40m 02s
Apparent Declination
-63° 45' 07"
Sunlit
Object is in full shadow
Visualization observer readout
Local Sidereal Time
18:38:15
Azimuth
212.811° SW
Elevation
-54.439°
Doppler factor
1
Orbital elements
Apogee altitude
505.242 km
Perigee altitude
502.017 km
Semi-major axis
6,881.766 km
Eccentricity
0.0002343
Inclination
97.4295°
RAAN
199.7299°
Arg. of periapsis
351.1083°
True anomaly
9.01521°
Mean anomaly
9.011°
Eccentric anomaly
9.0131°
Mean motion
3.80184 °/min
BSTAR
0.00041703
Orbital period
94.69 mins
Loading maneuver chart data...
Loading SW <> Apogee altitude chart data...
Loading historical data...
Loading historical data...
Loading historical data...
Loading historical data...
Loading historical data...
Loading historical data...
Loading historical data...

OBJECT T Visibility forecast

Observer location: undefined°, undefined°

Span
Click to sort rows by Start time (UTC) header in descending order
Start Az.
Max El. time (UTC)
Max El. Az.
Max El.
End time (UTC)
End Az.
6 mins2025-04-30 18:12:09.211Z12.792° NNE2025-04-30 18:15:09.211Z28.504° NE44.522°2025-04-30 18:18:09.211Z191.616° SSW
5 mins2025-05-01 04:51:09.211Z124.911° SE2025-05-01 04:53:09.211Z76.897° E27.833°2025-05-01 04:56:09.211Z11.704° NNE
|